WESTFORD NEEDLES, 19030

Orbit data source: Space-Track

WESTFORD NEEDLES, 19030 is space debris in LEO originally from a launch on Thu, 09 May 1963 UTC launched from the Air Force Western Test Range (AFWTR). Debris objects in space refer to the collection of defunct objects orbiting the Earth. Examples of debris include non-operational satellites, rocket bodies, and fragments generated from explosions, collisions, or faulty payload assembly.

Loading next visibility...
Identifier
19030, 1963-014DY
Orbit
LEO
Country
Flag of USUS
Related business
Manufacturer
Unknown
Mission
Spacecraft
Bus & Motor
Unknown
Mass
Unknown
Launch date (UTC)
1963-05-09 (62 years ago)
Launch vehicle
Unknown
Launch site
Air Force Western Test Range (AFWTR)
Object type
Payload
Rocket body
Debris
Shape & HBR
Unknown shape, 1.1 m
Radar Cross Section
Medium (>0.1 m² and <1 m²)

Expand to show TLE details & history
Last TLE update: 2 days ago

TLE from 2 days ago
0 WESTFORD NEEDLES
1 19030U 63014DY  25287.90870931  .00000021  00000-0  84880-2 0  9991
2 19030  87.3488 254.2674 0033789 302.8460  56.9143  8.64506254367763
Epoch: 2025-10-14T21:48Z
TLE epoch observation values (Epoch: 2025-10-14T21:48:32.484Z)
Latitude
-0.00002°
Longitude
-96.55833°
Altitude
3,633.832 km
Speed
6.316 km/s
True Right ascension
16h 57m 04s
True Declination
0° 00' 00"
Sunlit
Object was in daylight at epoch
Visualization orbit readout
Latitude
Unknown
Longitude
Unknown
Altitude
Unknown
Speed
Unknown
Apparent Right ascension
Unknown
Apparent Declination
Unknown
Sunlit
N/A
Visualization observer readout
Local Sidereal Time
10:37:51
Azimuth
Unknown
Elevation
Unknown
Doppler factor
Unknown
Orbital elements
Apogee altitude
3,681.767 km
Perigee altitude
3,614.013 km
Semi-major axis
10,026.027 km
Eccentricity
0.00338
Inclination
87.3488°
RAAN
254.2674°
Arg. of periapsis
302.846°
True anomaly
57.23946°
Mean anomaly
56.9143°
Eccentric anomaly
57.07681°
Mean motion
2.16197 °/min
Orbital period
166.51 mins
BSTAR
0.008488
Loading maneuver chart data...
Computing Atmospheric mass density...

Documentation

Showing up to 5 results
|